Date,TemperatureHighF,TemperatureAvgF,TemperatureLowF,DewpointHighF,DewpointAvgF,DewpointLowF,HumidityHigh,HumidityAvg,HumidityLow,PressureMaxIn,PressureMinIn,WindSpeedMaxMPH,WindSpeedAvgMPH,GustSpeedMaxMPH,PrecipitationSumIn
2012-2-7,55,44,42,32,31,24,67,62,30,30.31,30.23,5,4,9,0.00
2012-2-8,42,42,42,31,31,31,63,63,63,30.31,30.31,6,6,7,0.00
2012-2-10,42,42,42,33,32,32,70,70,69,30.09,30.09,2,2,7,0.00
2012-2-11,25,22,18,10,9,7,63,58,53,30.20,30.06,19,15,28,0.00
2012-2-12,15,15,15,6,6,6,66,66,66,30.45,30.44,8,8,25,0.00
2012-2-13,46,30,24,13,12,12,60,51,27,30.41,30.27,2,2,14,0.00
2012-2-26,48,48,48,19,19,18,31,30,30,30.50,30.50,5,5,13,0.00
2012-2-27,60,49,37,44,38,32,80,68,56,30.56,30.43,5,2,13,0.00
2012-2-28,57,46,36,42,38,34,94,76,57,30.54,30.42,3,2,13,0.00
2012-2-29,62,53,51,55,51,50,97,94,78,30.24,29.98,13,3,14,0.02
2012-3-1,70,60,48,46,30,23,72,38,17,29.95,29.88,5,3,11,0.00
2012-3-2,58,54,47,56,51,40,95,89,78,29.99,29.85,5,4,12,0.32
2012-3-3,49,48,46,41,17,12,82,31,23,29.89,29.79,8,4,12,0.70
2012-3-4,41,36,27,25,20,14,84,54,36,30.13,29.81,17,8,28,0.00
2012-3-5,41,38,35,32,24,17,79,57,40,30.39,30.06,19,13,29,0.00
2012-3-6,50,39,23,25,22,20,89,54,31,30.75,30.68,8,2,11,0.00
2012-3-7,56,47,36,44,41,31,86,78,61,30.74,30.54,10,2,16,0.00
2012-3-8,62,55,47,50,48,43,92,78,60,30.54,30.19,10,5,16,0.00
2012-3-9,51,48,46,48,35,23,90,65,36,30.36,30.23,14,9,23,0.20
2012-3-13,50,50,50,50,50,50,98,98,98,30.31,30.31,0,0,0,0.00
2012-3-15,59,54,42,56,52,41,96,93,87,30.37,30.30,6,2,10,0.16
2012-3-16,75,63,49,58,52,48,98,71,40,30.31,30.21,14,3,17,0.24
2012-3-17,71,55,49,56,53,49,98,94,53,30.32,30.26,4,1,6,0.00
2012-3-18,68,58,52,55,54,52,99,87,63,30.42,30.28,5,1,10,0.14
2012-3-19,76,59,47,55,50,46,98,77,43,30.31,30.20,7,1,10,0.00
2012-3-20,78,65,50,57,53,46,97,70,40,30.27,30.17,13,4,18,0.01
2012-3-21,71,62,54,57,54,51,97,76,53,30.32,30.24,9,2,19,0.00
2012-3-22,66,56,53,58,54,51,97,91,73,30.32,30.24,8,1,11,0.02
2012-3-23,65,61,53,61,59,52,98,92,82,30.19,30.03,8,3,14,0.45
2012-3-24,68,59,52,59,48,40,99,70,38,29.97,29.80,14,6,23,0.19
2012-3-25,57,54,48,50,47,43,86,79,71,29.98,29.85,13,7,20,0.00
2012-3-26,61,56,54,47,47,45,76,70,61,30.11,30.00,12,7,20,0.00
2012-3-27,64,59,51,40,38,30,62,46,38,30.37,30.28,6,3,12,0.00
2012-3-28,74,62,42,49,46,39,93,58,35,30.28,30.03,10,4,13,0.00
2012-3-29,75,65,55,52,49,46,79,58,39,30.02,29.94,9,3,14,0.00
2012-3-30,72,68,56,55,43,38,95,45,31,30.03,29.98,7,4,23,0.26
2012-3-31,69,56,56,57,54,48,99,94,54,29.90,29.88,8,1,23,0.13
2012-4-1,75,63,55,53,50,44,85,63,35,29.95,29.85,16,4,30,0.02
2012-4-2,79,74,51,56,55,49,94,53,41,29.95,29.82,8,4,16,0.00
2012-4-3,63,60,56,60,58,53,94,90,86,30.05,29.96,4,2,7,0.15
2012-4-4,74,67,50,58,56,49,98,70,47,29.93,29.76,8,3,9,0.00
2012-4-5,62,54,50,58,52,48,97,95,85,29.84,29.74,10,5,16,0.27
2012-4-6,60,49,43,47,43,36,96,79,56,30.18,29.91,10,3,16,0.37
2012-4-7,61,41,33,35,33,30,97,79,34,30.34,30.30,5,1,9,0.04
2012-4-8,71,62,40,44,41,38,93,48,35,30.28,30.10,12,6,21,0.00
2012-4-9,68,61,50,32,24,17,48,26,14,30.16,29.98,9,6,15,0.00
2012-4-10,62,56,48,38,32,26,51,39,33,30.06,29.91,11,6,20,0.00
2012-4-11,53,46,39,26,22,17,45,39,34,30.23,29.99,15,7,22,0.00
2012-4-12,58,41,27,31,26,22,87,59,29,30.37,30.23,9,3,19,0.08
2012-4-13,63,53,30,36,30,25,95,45,24,30.37,30.30,10,4,13,0.00
2012-4-14,62,48,36,43,39,34,92,73,46,30.43,30.29,4,1,5,0.00
2012-4-15,73,62,41,57,52,39,94,71,51,30.32,30.22,15,6,22,0.00
2012-4-16,76,67,55,59,57,53,93,71,50,30.24,30.15,14,6,22,0.00
2012-4-17,72,62,56,57,56,52,94,81,57,30.25,30.12,8,4,12,0.03
2012-4-18,54,50,49,53,48,48,96,93,89,30.20,30.14,8,4,11,0.08
2012-4-19,62,56,49,54,52,48,98,87,73,30.18,30.09,7,3,12,0.02
2012-4-20,66,59,53,54,53,51,95,81,63,30.06,29.93,10,4,14,0.01
2012-4-21,68,55,51,59,53,50,99,93,73,29.90,29.78,4,2,6,0.01
2012-4-22,58,50,41,50,44,34,92,81,62,29.75,29.62,14,6,26,0.01
2012-4-23,48,43,36,29,24,20,72,50,33,29.89,29.70,15,9,29,0.01
2012-4-24,56,49,40,40,31,22,71,51,30,29.97,29.85,17,8,27,0.00
2012-4-25,49,46,43,42,41,40,91,82,71,29.99,29.95,8,4,17,0.00
2012-4-26,59,59,59,56,56,56,90,90,90,29.91,29.91,1,1,1,0.00
2012-4-27,75,66,54,56,54,51,93,67,43,30.14,30.05,5,2,12,0.01
2012-4-28,63,56,52,52,49,45,95,79,58,30.22,30.13,7,3,12,0.00
2012-4-29,77,69,47,62,58,46,99,71,48,30.26,30.18,8,4,15,0.00
2012-4-30,78,69,54,66,60,53,98,75,55,30.26,30.13,12,4,18,0.00
2012-5-1,79,67,61,67,62,59,96,84,52,30.20,30.10,8,3,13,0.01
2012-5-2,83,69,58,69,62,58,99,81,42,30.21,30.14,7,2,11,0.00
2012-5-3,80,72,53,64,60,52,98,69,40,30.21,30.14,8,3,12,0.00
2012-5-4,79,69,60,62,60,57,98,74,50,30.15,30.02,11,3,16,0.00
2012-5-5,77,70,59,61,59,57,96,69,54,30.04,29.93,9,4,12,0.00
2012-5-6,73,63,56,61,58,55,97,85,65,30.06,30.00,7,3,12,0.00
2012-5-7,72,64,60,60,59,58,95,86,64,30.09,29.99,7,3,13,0.00
2012-5-8,72,67,62,65,63,60,96,86,73,29.99,29.88,8,5,13,0.00
2012-5-9,62,59,56,60,54,50,100,85,75,29.90,29.81,11,4,15,0.00
2012-5-10,66,58,49,46,42,38,82,57,38,30.09,29.90,8,4,15,0.00
2012-5-11,67,58,42,50,46,40,97,67,42,30.30,30.08,7,2,10,0.00
2012-5-12,66,58,47,57,53,46,98,83,71,30.42,30.33,7,3,9,0.03
2012-5-13,58,55,53,57,54,52,99,98,93,30.32,30.19,4,1,5,0.25
2012-5-14,72,65,56,63,60,56,100,84,70,30.08,29.96,9,4,11,1.89
2012-5-15,70,61,57,62,57,54,100,89,71,30.05,30.01,6,2,8,0.00
2012-5-16,76,68,56,61,57,51,100,70,43,30.07,29.97,7,3,12,0.00
2012-5-17,74,66,52,61,56,51,98,73,48,30.08,30.00,8,3,13,0.01
2012-5-18,70,62,56,60,57,55,98,85,68,30.15,30.11,6,2,10,0.00
2012-5-19,71,61,53,60,54,50,91,80,61,30.23,30.13,8,2,11,0.00
2012-5-20,74,63,50,56,51,46,98,69,41,30.23,30.13,9,2,12,0.00
2012-5-21,74,64,50,58,54,48,97,73,55,30.15,29.98,12,5,17,0.00
2012-5-22,72,64,55,63,58,54,98,84,60,29.96,29.87,5,2,7,0.29
2012-5-23,70,62,59,61,60,59,99,92,74,29.99,29.92,7,2,10,0.12
2012-5-24,76,70,54,62,60,54,99,71,57,30.07,30.03,7,3,11,0.00
2012-5-25,82,70,57,65,60,56,98,75,52,30.19,30.13,5,2,8,0.00
2012-5-26,82,69,57,67,61,57,99,79,50,30.23,30.22,4,1,6,0.00
2012-5-27,77,75,71,64,63,62,75,66,60,30.14,30.11,7,4,13,0.00
2012-5-28,78,71,66,67,65,63,97,83,61,30.13,30.03,7,4,12,0.12
2012-5-29,76,69,64,67,65,64,98,89,71,30.04,29.90,9,2,12,0.11
2012-5-30,79,71,62,61,57,53,98,65,42,29.91,29.87,7,3,12,0.01
2012-5-31,79,72,53,64,59,52,98,66,45,29.97,29.87,10,4,15,0.00
2012-6-1,68,63,57,61,56,50,92,78,68,29.89,29.78,8,5,14,0.01
2012-6-2,65,56,53,47,45,44,73,67,48,29.96,29.92,8,6,13,0.00
2012-6-3,77,70,44,54,50,42,97,52,36,30.08,29.96,7,3,14,0.00
2012-6-4,74,66,56,59,56,54,94,71,56,29.89,29.82,10,5,16,0.00
2012-6-5,68,64,56,60,58,55,96,80,69,29.89,29.82,7,3,13,0.12
2012-6-6,63,59,56,57,56,54,98,90,76,30.07,29.95,7,3,15,0.03
2012-6-7,74,68,56,61,56,49,97,68,44,30.15,30.08,7,3,11,0.00
2012-6-17,77,69,57,63,60,55,95,75,57,30.25,30.08,7,3,10,0.00
2012-6-18,77,63,60,64,60,58,98,93,61,30.14,30.09,6,1,8,0.05
2012-6-19,81,72,57,64,62,56,98,72,55,30.25,30.19,6,2,11,0.01
2012-6-20,81,70,58,66,62,57,98,80,58,30.25,30.15,6,1,11,0.00
2012-6-21,77,70,61,68,65,60,99,85,70,30.16,30.00,4,1,11,0.00
2012-6-22,74,70,64,68,66,63,98,88,78,30.00,29.93,6,2,10,0.06
2012-6-23,78,66,61,71,64,60,100,94,70,30.05,29.98,7,2,11,0.40
2012-6-24,84,74,62,70,66,61,100,79,60,30.07,29.96,8,3,13,0.03
2012-6-25,84,74,62,74,68,62,100,84,64,29.94,29.78,5,1,13,0.10
2012-6-26,75,65,58,58,56,54,91,73,50,29.97,29.87,7,3,9,0.01
2012-6-27,82,62,50,62,54,49,98,81,37,30.10,29.96,5,1,8,0.00
2012-6-28,87,73,53,67,60,52,97,67,39,30.13,30.00,6,3,10,0.00
2012-6-29,94,87,77,70,61,51,77,42,35,29.99,29.87,11,4,16,0.00
2012-6-30,93,81,64,68,65,62,97,64,41,29.97,29.91,6,3,10,0.00
2012-7-1,95,83,65,69,66,62,98,61,39,30.05,29.96,8,3,14,0.01
2012-7-2,85,71,63,68,65,62,97,83,55,30.18,30.04,5,2,10,0.54
2012-7-3,68,66,63,66,65,62,98,96,94,30.11,30.06,2,1,3,0.00
2012-7-9,80,80,80,68,68,68,67,67,67,29.97,29.97,5,4,6,0.00
2012-7-14,78,74,69,70,69,67,95,86,71,30.25,30.17,7,2,11,0.11
2012-7-15,80,72,65,72,70,65,99,91,70,30.26,30.15,6,1,8,0.02
2012-7-16,84,70,64,70,67,64,100,90,59,30.16,30.03,8,1,14,0.01
2012-7-17,74,68,64,69,66,64,98,95,86,30.07,30.02,2,0,3,0.02
2012-7-18,73,71,65,69,68,65,100,91,85,30.07,29.98,4,1,6,0.00
2012-7-19,87,77,65,72,69,64,100,78,51,30.12,30.01,10,3,16,0.00
2012-7-20,80,73,66,71,68,66,99,84,64,30.01,29.96,4,2,6,0.01
2012-7-21,82,75,67,72,69,66,100,82,70,30.15,30.05,6,2,10,0.00
2012-7-22,85,74,64,73,68,63,99,85,62,30.24,30.14,6,2,11,0.00
2012-7-23,84,76,65,73,70,65,100,83,61,30.27,30.12,11,2,17,0.00
2012-7-24,84,78,73,73,70,67,89,76,59,30.10,29.96,8,3,15,0.14
2012-7-25,80,73,69,72,68,64,98,85,71,30.06,29.96,12,3,16,0.28
2012-7-26,88,74,66,73,69,66,100,86,56,30.00,29.89,10,2,11,0.00
2012-7-27,81,73,68,72,68,66,95,85,67,29.98,29.93,5,2,10,0.95
2012-7-28,84,70,66,68,66,65,98,89,55,30.07,29.99,4,1,8,0.01
2012-7-29,84,79,63,68,62,55,97,59,39,30.09,29.99,6,3,10,0.00
2012-7-30,82,77,65,69,66,64,97,70,57,30.06,29.99,6,2,9,0.00
2012-7-31,72,68,64,68,66,64,98,94,86,30.04,29.98,3,2,6,1.09
2012-8-1,84,73,63,71,67,62,99,84,50,30.00,29.92,5,2,8,0.01
2012-8-2,84,76,64,72,69,63,99,79,58,29.99,29.94,5,1,10,0.00
2012-8-3,78,72,63,72,69,62,99,90,76,30.10,29.97,5,1,9,0.00
2012-8-4,76,70,66,70,68,66,100,94,83,30.23,30.12,4,2,9,1.72
2012-8-5,80,75,70,71,70,68,98,84,68,30.25,30.17,8,3,14,0.00
2012-8-6,79,70,66,70,68,66,100,96,74,30.19,30.08,9,1,12,0.21
2012-8-7,75,71,67,72,69,67,100,93,82,30.09,30.03,3,1,5,0.01
2012-8-8,78,71,67,73,68,62,99,92,74,30.07,30.01,7,1,8,0.12
2012-8-9,75,66,64,70,66,64,100,98,85,30.07,29.94,14,2,25,1.83
2012-8-10,73,68,62,70,67,62,100,96,90,29.96,29.89,7,2,9,0.10
2012-8-11,78,67,65,68,66,64,100,97,69,29.94,29.91,6,1,9,0.04
2012-8-12,81,73,56,64,59,47,99,64,33,30.08,30.04,5,2,9,0.00
2012-8-13,78,70,55,66,61,55,100,75,52,30.14,30.02,8,3,11,0.01
2012-8-14,78,68,60,70,63,59,99,87,72,30.03,29.93,8,3,15,1.05
2012-8-16,77,74,69,65,63,61,85,69,60,30.05,30.03,4,2,15,0.01
2012-8-17,76,71,60,66,64,59,99,79,66,30.04,29.93,4,1,7,0.00
2012-8-18,73,66,61,67,64,60,99,94,78,29.99,29.92,5,1,7,0.47
2012-8-19,78,74,71,65,64,62,77,69,61,29.95,29.89,5,3,7,0.13
2012-8-20,67,65,60,63,62,59,99,92,84,30.03,29.98,3,1,5,0.03
2012-8-21,64,59,55,60,58,55,100,96,83,30.15,30.08,7,2,8,0.12
2012-8-22,74,63,55,66,60,55,100,93,72,30.22,30.14,2,0,3,0.01
2012-8-23,74,66,60,66,62,60,100,90,73,30.23,30.16,12,2,18,0.17
2012-8-24,76,65,57,65,62,57,100,90,65,30.24,30.17,8,2,14,0.04
2012-8-25,74,61,56,67,60,56,100,96,74,30.26,30.18,4,1,6,0.02
2012-8-26,79,72,55,69,64,55,100,78,59,30.24,30.17,6,3,13,0.07
2012-8-28,77,70,61,69,68,61,99,93,77,30.10,30.03,5,1,8,0.01
2012-8-29,79,70,65,72,67,65,99,93,74,30.06,30.01,9,2,16,0.81
2012-8-30,76,71,65,72,69,65,100,94,82,30.21,30.06,4,2,7,0.12
2012-8-31,82,72,64,73,69,64,100,91,68,30.31,30.18,6,1,9,0.01
2012-9-1,83,71,66,73,69,66,100,92,66,30.22,30.12,6,1,8,0.00
2012-9-2,82,73,64,72,69,64,100,88,69,30.10,30.00,11,3,14,0.08
2012-9-3,74,70,67,71,68,67,100,95,89,30.02,29.98,6,3,11,0.44
2012-9-4,72,69,68,70,68,67,99,97,93,30.03,29.97,5,2,7,0.44
2012-9-5,77,69,66,71,68,66,100,96,81,30.00,29.93,8,2,12,0.01
2012-9-6,82,72,64,71,67,64,100,85,58,30.01,29.94,7,2,11,0.00
2012-9-7,81,70,60,71,65,60,100,85,63,30.03,29.94,5,2,9,0.00
2012-9-8,72,65,61,64,60,58,89,83,76,29.91,29.79,9,5,15,0.01
2012-9-9,72,66,52,56,53,49,91,66,51,30.10,29.97,8,4,17,0.00
2012-9-10,75,64,47,58,53,45,99,73,35,30.24,30.15,7,2,11,0.00
2012-9-11,69,60,56,60,55,51,97,85,65,30.38,30.24,6,1,7,0.00
2012-9-12,70,59,52,60,56,52,100,90,69,30.44,30.34,5,1,6,0.01
2012-9-13,54,54,54,54,54,54,98,98,98,30.39,30.38,1,1,2,0.00
2012-9-14,72,68,63,64,63,61,93,83,74,30.27,30.26,3,1,8,0.00
2012-9-15,74,62,51,64,59,51,99,89,63,30.30,30.18,3,1,8,0.01
2012-9-16,71,66,62,66,64,61,99,93,82,30.19,30.11,4,2,8,0.13
2012-9-17,66,64,62,65,64,62,100,98,95,30.13,29.95,5,2,10,0.68
2012-9-18,68,66,63,66,64,59,99,93,85,29.89,29.76,17,6,29,2.38
2012-9-19,62,57,49,59,54,48,97,92,85,30.19,30.01,2,1,15,0.00
2012-9-20,67,61,56,60,58,55,96,90,79,30.23,30.14,4,1,4,0.00
2012-9-21,71,67,50,63,62,50,99,85,75,30.17,30.07,7,3,10,0.01
2012-9-22,60,60,59,59,59,58,98,98,97,30.08,30.07,1,0,3,0.00
2012-9-24,63,48,38,48,44,37,98,85,54,30.31,30.26,5,1,8,0.00
2012-9-25,66,49,40,60,48,39,99,95,80,30.32,30.29,3,0,5,0.00
2012-9-26,75,58,49,65,55,49,99,93,60,30.32,30.23,6,1,10,0.01
2012-9-27,78,62,48,63,57,48,100,85,45,30.29,30.20,3,1,10,0.01
2012-9-28,78,61,53,64,57,52,100,89,57,30.23,30.06,7,1,12,0.01
2012-9-29,70,65,59,64,61,59,100,89,77,30.05,29.93,5,2,8,0.25
2012-9-30,66,57,51,57,54,50,100,90,58,30.00,29.94,4,1,6,0.01
2012-10-1,58,56,55,57,56,55,99,97,94,29.92,29.85,8,5,14,0.24
2012-10-2,71,66,60,67,63,60,99,90,70,30.02,29.82,12,4,18,0.64
2012-10-3,73,62,56,61,58,56,100,90,62,30.28,30.11,6,2,12,0.00
2012-10-4,72,59,56,58,56,54,100,91,56,30.31,30.26,5,1,6,0.00
2012-10-5,72,60,46,58,52,46,100,79,57,30.30,30.13,7,2,10,0.01
2012-10-6,72,59,48,61,55,48,100,87,61,30.09,29.98,7,2,10,0.01
2012-10-7,56,52,46,56,50,43,99,93,84,30.20,30.03,9,3,13,0.26
2012-10-8,46,45,44,44,42,39,96,92,79,30.29,30.22,6,4,9,0.00
2012-10-9,54,47,43,48,45,43,97,93,78,30.27,30.19,5,2,9,0.00
2012-10-10,64,54,41,52,48,41,100,81,64,30.22,30.16,10,3,16,0.00
2012-10-11,63,54,39,50,47,37,95,79,60,30.38,30.30,7,2,10,0.00
2012-10-12,67,53,41,56,48,40,100,87,66,30.39,30.31,6,2,10,0.00
2012-10-13,60,51,44,47,45,43,97,83,61,30.52,30.41,5,2,8,0.00
2012-10-14,63,54,43,59,52,42,99,94,83,30.44,30.13,8,2,12,0.00
2012-10-15,67,60,55,60,54,42,99,84,44,30.13,29.90,10,5,16,0.75
2012-10-16,66,52,44,44,41,32,95,68,30,30.05,29.96,9,3,14,0.00
2012-10-17,63,45,41,47,42,40,98,90,50,30.08,30.01,7,1,12,0.00
2012-10-25,69,59,40,56,53,39,98,82,62,30.25,30.19,7,2,11,0.00
2012-10-26,71,62,53,59,55,51,98,79,60,30.20,30.04,8,3,12,0.00
2012-10-27,64,54,48,56,51,47,99,91,74,30.05,29.84,7,2,13,0.00
2012-10-28,54,47,41,46,42,37,91,84,74,29.88,29.81,12,7,19,0.06
2012-10-29,39,37,36,33,32,30,84,80,75,29.83,29.69,16,8,33,0.00
2012-10-30,38,36,34,33,32,30,90,84,72,29.83,29.61,11,7,21,0.00
2012-10-31,52,41,37,35,30,22,81,64,45,29.93,29.80,13,6,23,0.00
2012-11-1,52,41,36,31,25,17,72,53,26,30.03,29.91,12,5,19,0.00
2012-11-2,37,34,31,31,25,22,88,70,56,30.05,30.02,2,1,4,0.00
2012-11-7,37,37,37,36,36,36,96,96,95,30.05,30.05,1,1,4,0.06
2012-11-8,51,51,51,32,31,30,48,46,44,30.25,30.24,10,8,17,0.00
2012-11-12,59,59,58,58,57,57,96,95,94,30.25,30.24,5,4,8,0.27
2012-11-13,48,39,32,36,33,30,92,80,55,30.51,30.33,8,2,13,0.01
2012-11-14,42,36,26,31,29,24,96,74,61,30.59,30.46,9,3,13,0.01
2012-11-15,44,38,32,36,34,30,92,84,71,30.43,30.35,3,1,6,0.15
2012-11-16,50,39,26,32,30,25,97,72,43,30.52,30.42,3,0,5,0.01
2012-11-17,54,44,25,30,23,20,96,48,27,30.61,30.52,10,5,15,0.00
2012-11-18,52,47,42,42,40,38,85,76,68,30.51,30.46,7,3,11,0.00
2012-11-19,54,43,40,48,41,39,97,95,82,30.46,30.33,3,1,11,0.00
2012-11-20,60,50,36,45,35,27,99,63,28,30.31,30.17,8,2,12,0.01
2012-11-21,54,48,33,38,36,31,92,65,52,30.31,30.23,4,2,11,0.00
2012-11-22,61,46,29,40,32,28,97,64,33,30.38,30.28,6,1,11,0.00
2012-11-23,61,44,28,46,36,27,97,74,42,30.27,30.08,11,6,22,0.00
2012-11-24,41,36,32,31,24,16,73,63,43,30.24,30.09,12,7,20,0.00
2012-11-25,51,38,34,23,20,10,63,51,19,30.30,30.17,7,3,20,0.00
2012-11-26,58,42,24,32,27,21,89,59,33,30.34,30.23,5,2,10,0.00
2012-11-27,54,48,43,46,42,36,88,80,71,30.31,30.17,9,3,11,0.01
2012-11-28,47,38,28,31,23,13,89,57,27,30.50,30.38,10,4,14,0.00
2012-11-29,50,29,22,38,23,19,94,81,62,30.58,30.48,3,0,5,0.00
2012-11-30,53,42,25,41,36,24,95,81,62,30.51,30.42,4,1,6,0.00
2012-12-1,60,47,28,45,40,27,98,78,58,30.51,30.45,6,2,9,0.01
2012-12-2,63,57,45,51,47,42,98,71,52,30.49,30.36,13,6,18,0.00
2012-12-3,67,54,37,50,45,36,98,76,53,30.42,30.33,7,2,12,0.00
2012-12-4,62,52,37,49,45,36,98,78,61,30.42,30.31,6,2,7,0.00
2012-12-5,55,50,44,50,46,42,94,86,71,30.29,30.22,5,1,8,0.00
2012-12-6,48,45,44,44,37,27,93,74,48,30.35,30.27,6,2,10,0.00
2012-12-7,52,42,38,46,40,37,98,93,81,30.25,30.11,2,0,9,0.01
2012-12-8,58,44,37,52,42,36,99,96,81,30.16,30.10,5,1,8,0.01
2012-12-9,60,55,49,54,52,48,99,90,79,30.18,30.09,6,2,8,0.01
2012-12-10,57,54,52,55,53,51,98,96,91,29.92,29.75,7,3,10,0.22
2012-12-11,38,36,33,34,32,31,92,86,81,30.24,29.96,8,2,11,0.00
2012-12-12,40,37,32,34,33,30,97,85,74,30.43,30.33,8,2,13,0.00
2012-12-13,38,38,38,28,28,28,66,66,66,30.42,30.40,9,8,11,0.00
2012-12-14,52,23,22,35,21,20,95,92,52,30.50,30.46,3,1,8,0.00
2012-12-15,53,46,32,38,35,30,92,67,51,30.37,30.21,6,2,9,0.00
2012-12-16,51,47,43,51,47,42,99,98,94,30.15,30.02,3,0,4,0.33
2012-12-17,51,48,44,50,48,43,100,97,95,29.94,29.75,6,2,9,0.11
2012-12-18,47,39,30,42,31,27,100,74,50,30.07,29.80,7,2,12,0.01
2012-12-19,54,33,29,41,27,25,93,79,61,30.19,30.06,3,1,3,0.00
2012-12-20,45,41,34,41,39,33,99,93,81,30.18,29.69,7,3,12,0.76
2012-12-21,35,32,29,24,20,17,73,59,53,30.06,29.78,23,15,47,0.00
2012-12-22,46,36,27,17,9,4,61,36,18,30.31,30.06,23,9,46,0.00
2012-12-23,51,36,24,30,19,0,76,53,19,30.30,30.16,8,1,11,0.00
2012-12-24,47,41,36,46,39,29,98,93,72,30.17,29.95,8,2,14,0.31
2012-12-25,46,41,32,46,40,32,100,94,89,30.19,30.07,10,2,14,0.01
2012-12-26,42,37,31,40,33,26,97,87,74,29.86,29.61,14,8,27,1.85
2012-12-27,38,31,28,29,26,25,89,82,67,30.22,29.82,24,8,42,0.02
2012-12-28,43,31,24,33,27,23,97,86,65,30.28,30.13,6,1,8,0.00
2012-12-29,43,38,34,37,31,27,98,75,65,30.01,29.90,16,9,33,0.20
2012-12-30,40,33,26,21,17,9,79,54,29,30.57,30.48,12,4,22,0.00
2012-12-31,46,31,22,29,24,20,93,77,44,30.54,30.28,6,1,7,0.00
2013-1-1,43,41,38,42,39,30,99,91,62,30.21,30.08,6,1,9,0.42